Regional Weather Roundup
Issued by NWS

Home | Current Version | Previous Version | Graphics & Text | Print | Product List | Glossary Off
Versions: 1 2 3 4 5 6 7 8 9 10 11 12 13 14 15 16 17 18 19 20 21 22 23 24 25 26 27 28 29 30 31 32 33 34 35 36 37 38 39 40 41 42 43 44 45 46 47 48 49 50

000
ASUS43 KDMX 290007
RWRIA

WEATHER ROUNDUP FOR IOWA
NATIONAL WEATHER SERVICE DES MOINES IA
700 PM CDT MON JUL 28 2014

NOTE: "FAIR" INDICATES FEW OR NO CLOUDS BELOW 12,000 FEET WITH NO
SIGNIFICANT WEATHER AND/OR OBSTRUCTIONS TO VISIBILITY.

* - THESE STATIONS ARE NOT NWS STATIONS...THUS NOT UNDER NWS
QUALITY CONTROL.  THEY ALSO DO NOT REPORT WEATHER SUCH
AS PRECIPITATION OR FOG.

IAZ001>003-012>014-020>022-031>034-043>046-290100-
   NORTHWEST IOWA

CITY           SKY/WX    TMP DP  RH WIND       PRES   REMARKS
CARROLL *      PTSUNNY   72  61  68 N7        30.17F
CHEROKEE *     SUNNY     72  58  60 N8        30.19S
DENISON *      SUNNY     70  61  73 NW5       30.16F
LE MARS *      PTSUNNY   73  57  56 N9        30.19F
ORANGE CITY *  MOSUNNY   73  54  49 N8        30.20F
SHELDON *      SUNNY     70  59  68 N6        30.19F
SIOUX CITY     MOSUNNY   74  56  53 N7        30.19F
6HR MIN TEMP:  73; 6HR MAX TEMP:  80;

SPENCER        MOSUNNY   70  56  61 NE8       30.19F
6HR MIN TEMP:  70; 6HR MAX TEMP:  75;

STORM LAKE *   MOSUNNY   70  61  73 N7        30.19F
$$

IAZ055>058-069>071-079>083-090>094-290100-
   SOUTHWEST IOWA

CITY           SKY/WX    TMP DP  RH WIND       PRES   REMARKS
ATLANTIC *     SUNNY     73  59  60 NW9       30.16F
AUDUBON *      MOSUNNY   73  63  68 NW5       30.18F
CLARINDA *     MOSUNNY   75  59  57 N9        30.18S
COUNCIL BLFS * SUNNY     75  59  57 NW8       30.17F
CRESTON *      PTSUNNY   73  57  56 NW9       30.16F
HARLAN  *      PTSUNNY   73  59  60 NW9G16    30.21S
LAMONI         PTSUNNY   74  57  55 N6        30.15F
6HR MIN TEMP:  72; 6HR MAX TEMP:  77;

RED OAK *      SUNNY     75  59  57 VRB7      30.17F
SHENANDOAH *   SUNNY     75  57  53 NW7       30.18F
$$

IAZ047>049-059>061-072>074-084-290100-
   CENTRAL IOWA

CITY           SKY/WX    TMP DP  RH WIND       PRES   REMARKS
AMES           SUNNY     73  57  57 N9        30.15F
6HR MIN TEMP:  68; 6HR MAX TEMP:  75;

ANKENY *       CLOUDY    70  59  68 NE12      30.16R
CHARITON *     CLOUDY    70  59  68 NW5       30.15F
DES MOINES     PTSUNNY   73  57  57 NW5       30.15F
6HR MIN TEMP:  72; 6HR MAX TEMP:  78; 6HR PCP: TRACE;

GRINNELL*      CLOUDY    70  59  68 CALM      30.16S
KNOXVILLE *    CLOUDY    72  57  60 W8        30.14F
MARSHALLTOWN   SUNNY     72  60  66 W7        30.14F
6HR MIN TEMP:  70; 6HR MAX TEMP:  74;

PELLA *        PTSUNNY   72  59  64 NW3       30.16S
PERRY *          N/A     70  63  78 NW5       30.16F
$$

IAZ004>006-015-016-023>025-035-036-290100-
   NORTH CENTRAL IOWA

CITY           SKY/WX    TMP DP  RH WIND       PRES   REMARKS
ALGONA *       SUNNY     72  55  56 N9        30.18S
CLARION *      SUNNY     73  54  49 N7        30.16F
ESTHERVILLE    SUNNY     71  54  54 N12       30.19F
6HR MIN TEMP:  68; 6HR MAX TEMP:  74;

FORT DODGE *   PTSUNNY   72  55  56 NE6       30.18S
MASON CITY     CLOUDY    72  56  57 N10       30.17F
6HR MIN TEMP:  71; 6HR MAX TEMP:  77;

FOREST CITY *  MOSUNNY   72  54  53 N8        30.16F
IOWA FALLS *     N/A     73  54  49 NW10      30.16F
$$

IAZ007>011-017>019-026>030-037>042-050>054-066-290100-
   NORTHEAST IOWA

CITY           SKY/WX    TMP DP  RH WIND       PRES   REMARKS
CEDAR RAPIDS   MOSUNNY   70  55  59 NW6       30.12F
6HR MIN TEMP:  70; 6HR MAX TEMP:  75;

CHARLES CITY * CLOUDY    70  55  60 N6        30.16F
CLINTON *      PTSUNNY   70  52  52 NW7       30.14F
DECORAH *      MOSUNNY   68  54  60 N5        30.13F
DUBUQUE        MOSUNNY   69  54  58 NW7       30.13F
6HR MIN TEMP:  68; 6HR MAX TEMP:  71;

MONTICELLO *   SUNNY     72  54  53 MISG      30.12F
OELWEIN *      PTSUNNY   72  55  56 N5        30.15S
WATERLOO       SUNNY     73  53  49 N8        30.13F
6HR MIN TEMP:  70; 6HR MAX TEMP:  76;

$$

IAZ064-065-067-068-078-290100-
   EAST CENTRAL IOWA

CITY           SKY/WX    TMP DP  RH WIND       PRES   REMARKS
DAVENPORT      SUNNY     70  53  54 N7        30.13F
6HR MIN TEMP:  69; 6HR MAX TEMP:  73;

IOWA CITY      CLOUDY    72  57  59 W8        30.14F
6HR MIN TEMP:  71; 6HR MAX TEMP:  75;

MT. PLEASANT * MOSUNNY   72  54  53 NW7       30.14S
MUSCATINE *    SUNNY     73  54  49 N5        30.12F
QUAD CITIES    SUNNY     72  50  45 N7        30.11F
6HR MIN TEMP:  71; 6HR MAX TEMP:  75;

$$

IAZ062-063-075>077-085>089-095>099-290100-
   SOUTHEAST IOWA

CITY           SKY/WX    TMP DP  RH WIND       PRES   REMARKS
BURLINGTON     PTSUNNY   71  54  54 N6        30.13S
6HR MIN TEMP:  70; 6HR MAX TEMP:  75;

FAIRFIELD *    PTSUNNY   70  57  64 N5        30.15S
FORT MADISON * SUNNY     72  54  53 N5        30.14S
KEOKUK *       PTSUNNY   72  55  56 N6        30.12F
OSKALOOSA *      N/A     71  60  66 N6        30.15S
CENTERVILLE *  SUNNY     72  57  60 N3        30.16F
OTTUMWA        SUNNY     72  57  59 N7        30.15R
6HR MIN TEMP:  70; 6HR MAX TEMP:  73;

WASHINGTON *   SUNNY     70  59  68 NW12      30.14S
$$

ABBREVIATIONS USED IN REMARKS
   TC - TEMPERATURES IN CELSIUS
  WCI - WIND CHILL INDEX
   HX - HEAT INDEX
  VSB - VISIBILITY
$$




USA.gov is the U.S. government's official web portal to all federal, state and local government web resources and services.